Time,TemperatureF,DewpointF,PressureIn,WindDirection,WindDirectionDegrees,WindSpeedMPH,WindSpeedGustMPH,Humidity,HourlyPrecipIn,Conditions,Clouds,dailyrainin,SoftwareType,DateUTC
2013-01-16 00:03:00,27.0,23.0,30.14,NE,34,3.0,6.0,85,0.00,,,0.00,,2013-01-16 05:03:00,
2013-01-16 00:12:00,27.0,23.0,30.14,NE,34,3.0,6.0,85,0.00,,,0.00,,2013-01-16 05:12:00,
2013-01-16 00:23:00,26.0,22.0,30.14,ENE,65,1.0,3.0,85,0.00,,,0.00,,2013-01-16 05:23:00,
2013-01-16 00:32:00,26.0,22.0,30.13,NE,37,2.0,3.0,86,0.00,,,0.00,,2013-01-16 05:32:00,
2013-01-16 00:42:00,26.0,22.0,30.13,NE,37,2.0,3.0,86,0.00,,,0.00,,2013-01-16 05:42:00,
2013-01-16 00:53:00,26.0,22.0,30.12,NE,49,2.0,3.0,86,0.00,,,0.00,,2013-01-16 05:53:00,
2013-01-16 01:03:00,26.0,22.0,30.11,NNE,32,2.0,4.0,86,0.00,,,0.00,,2013-01-16 06:03:00,
2013-01-16 01:12:00,26.0,22.0,30.11,NNE,32,2.0,4.0,86,0.00,,,0.00,,2013-01-16 06:12:00,
2013-01-16 01:22:00,26.0,22.0,30.11,NE,49,2.0,4.0,86,0.00,,,0.00,,2013-01-16 06:22:00,
2013-01-16 01:33:00,26.0,22.0,30.11,NE,49,2.0,4.0,86,0.00,,,0.00,,2013-01-16 06:33:00,
2013-01-16 01:43:00,26.0,22.0,30.11,NE,49,2.0,4.0,86,0.00,,,0.00,,2013-01-16 06:43:00,
2013-01-16 01:52:00,26.0,23.0,30.09,NNE,29,3.0,3.0,88,0.00,,,0.00,,2013-01-16 06:52:00,
2013-01-16 02:02:00,26.0,23.0,30.09,NE,41,2.0,4.0,88,0.00,,,0.00,,2013-01-16 07:02:00,
2013-01-16 02:12:00,26.0,23.0,30.09,NE,41,2.0,4.0,88,0.00,,,0.00,,2013-01-16 07:12:00,
2013-01-16 02:22:00,25.0,22.0,30.09,NE,53,2.0,3.0,87,0.00,,,0.00,,2013-01-16 07:22:00,
2013-01-16 02:33:00,25.0,22.0,30.07,ENE,64,2.0,2.0,88,0.00,,,0.00,,2013-01-16 07:33:00,
2013-01-16 02:42:00,25.0,22.0,30.07,ENE,64,2.0,2.0,88,0.00,,,0.00,,2013-01-16 07:42:00,
2013-01-16 02:52:00,25.0,22.0,30.08,NE,53,0.0,2.0,88,0.00,,,0.00,,2013-01-16 07:52:00,
2013-01-16 03:03:00,25.0,22.0,30.08,NE,53,0.0,0.0,89,0.00,,,0.00,,2013-01-16 08:03:00,
2013-01-16 03:12:00,25.0,22.0,30.08,NE,53,0.0,0.0,89,0.00,,,0.00,,2013-01-16 08:12:00,
2013-01-16 03:22:00,24.0,22.0,30.09,NE,52,0.0,1.0,90,0.00,,,0.00,,2013-01-16 08:22:00,
2013-01-16 03:32:00,24.0,22.0,30.08,North,4,2.0,3.0,91,0.00,,,0.00,,2013-01-16 08:32:00,
2013-01-16 03:42:00,24.0,22.0,30.08,North,4,2.0,3.0,91,0.00,,,0.00,,2013-01-16 08:42:00,
2013-01-16 03:52:00,25.0,22.0,30.07,NNE,32,1.0,2.0,90,0.00,,,0.00,,2013-01-16 08:52:00,
2013-01-16 04:02:00,25.0,22.0,30.05,NNE,21,3.0,4.0,90,0.00,,,0.00,,2013-01-16 09:02:00,
2013-01-16 04:12:00,25.0,22.0,30.05,NNE,21,3.0,4.0,90,0.00,,,0.00,,2013-01-16 09:12:00,
2013-01-16 04:22:00,25.0,22.0,30.06,NNW,345,0.0,4.0,90,0.00,,,0.00,,2013-01-16 09:22:00,
2013-01-16 04:32:00,25.0,22.0,30.07,NNW,331,2.0,3.0,90,0.00,,,0.00,,2013-01-16 09:32:00,
2013-01-16 04:42:00,25.0,22.0,30.07,NNW,331,2.0,3.0,90,0.00,,,0.00,,2013-01-16 09:42:00,
2013-01-16 04:52:00,25.0,22.0,30.06,NW,319,0.0,4.0,89,0.00,,,0.00,,2013-01-16 09:52:00,
2013-01-16 05:03:00,25.0,22.0,30.05,North,353,2.0,4.0,89,0.00,,,0.00,,2013-01-16 10:03:00,
2013-01-16 05:12:00,25.0,22.0,30.05,North,353,2.0,4.0,89,0.00,,,0.00,,2013-01-16 10:12:00,
2013-01-16 05:22:00,25.0,22.0,30.03,NNW,348,2.0,4.0,90,0.00,,,0.00,,2013-01-16 10:22:00,
2013-01-16 05:32:00,25.0,22.0,30.03,NE,53,0.0,2.0,90,0.00,,,0.00,,2013-01-16 10:32:00,
2013-01-16 05:42:00,25.0,22.0,30.03,NE,53,0.0,2.0,90,0.00,,,0.00,,2013-01-16 10:42:00,
2013-01-16 05:52:00,25.0,22.0,30.03,NE,39,0.0,2.0,89,0.00,,,0.00,,2013-01-16 10:52:00,
2013-01-16 06:02:00,25.0,22.0,30.02,North,358,1.0,2.0,89,0.00,,,0.00,,2013-01-16 11:02:00,
2013-01-16 06:12:00,25.0,22.0,30.02,North,358,1.0,2.0,89,0.00,,,0.00,,2013-01-16 11:12:00,
2013-01-16 06:23:00,25.0,22.0,30.02,NE,46,0.0,1.0,89,0.00,,,0.00,,2013-01-16 11:23:00,
2013-01-16 06:33:00,25.0,22.0,30.01,NNW,347,0.0,1.0,89,0.00,,,0.00,,2013-01-16 11:33:00,
2013-01-16 06:43:00,25.0,22.0,30.01,NNW,347,0.0,1.0,89,0.00,,,0.00,,2013-01-16 11:43:00,
2013-01-16 06:52:00,25.0,22.0,30.01,NNW,347,0.0,1.0,89,0.00,,,0.00,,2013-01-16 11:52:00,
2013-01-16 07:03:00,25.0,23.0,30.02,WSW,247,1.0,1.0,91,0.00,,,0.00,,2013-01-16 12:03:00,
2013-01-16 07:13:00,25.0,23.0,30.02,WSW,247,1.0,1.0,91,0.00,,,0.00,,2013-01-16 12:13:00,
2013-01-16 07:22:00,24.0,22.0,30.01,WSW,245,1.0,2.0,91,0.00,,,0.00,,2013-01-16 12:22:00,
2013-01-16 07:33:00,24.0,22.0,30.00,WSW,239,1.0,2.0,92,0.00,,,0.00,,2013-01-16 12:33:00,
2013-01-16 07:43:00,24.0,22.0,30.00,WSW,239,1.0,2.0,92,0.00,,,0.00,,2013-01-16 12:43:00,
2013-01-16 07:53:00,24.0,22.0,30.01,WSW,255,1.0,2.0,92,0.00,,,0.00,,2013-01-16 12:53:00,
2013-01-16 08:03:00,24.0,22.0,30.01,West,274,1.0,2.0,92,0.00,,,0.00,,2013-01-16 13:03:00,
2013-01-16 08:12:00,24.0,22.0,30.01,West,274,1.0,2.0,92,0.00,,,0.00,,2013-01-16 13:12:00,
2013-01-16 08:23:00,23.0,21.0,30.00,SW,233,0.0,2.0,93,0.00,,,0.00,,2013-01-16 13:23:00,
2013-01-16 08:33:00,23.0,21.0,30.00,SW,233,0.0,2.0,93,0.00,,,0.00,,2013-01-16 13:33:00,
2013-01-16 08:43:00,23.0,21.0,30.00,SW,233,0.0,2.0,93,0.00,,,0.00,,2013-01-16 13:43:00,
2013-01-16 08:52:00,23.0,21.0,30.00,SW,233,0.0,2.0,93,0.00,,,0.00,,2013-01-16 13:52:00,
2013-01-16 09:03:00,24.0,22.0,29.99,SW,219,2.0,3.0,92,0.00,,,0.00,,2013-01-16 14:03:00,
2013-01-16 09:12:00,24.0,22.0,29.99,SW,219,2.0,3.0,92,0.00,,,0.00,,2013-01-16 14:12:00,
2013-01-16 09:23:00,24.0,22.0,29.98,SW,222,2.0,3.0,92,0.00,,,0.00,,2013-01-16 14:23:00,
2013-01-16 09:33:00,24.0,22.0,29.99,WSW,257,3.0,5.0,92,0.00,,,0.00,,2013-01-16 14:33:00,
2013-01-16 09:43:00,24.0,22.0,29.99,WSW,257,3.0,5.0,92,0.00,,,0.00,,2013-01-16 14:43:00,
2013-01-16 09:53:00,25.0,23.0,30.00,WSW,240,6.0,8.0,92,0.00,,,0.00,,2013-01-16 14:53:00,
2013-01-16 10:03:00,26.0,24.0,30.01,West,277,5.0,9.0,91,0.00,,,0.00,,2013-01-16 15:03:00,
2013-01-16 10:12:00,26.0,24.0,30.01,West,277,5.0,9.0,91,0.00,,,0.00,,2013-01-16 15:12:00,
2013-01-16 10:23:00,27.0,24.0,30.01,WSW,255,8.0,13.0,90,0.00,,,0.00,,2013-01-16 15:23:00,
2013-01-16 10:33:00,28.0,25.0,30.01,WSW,250,10.0,14.0,88,0.00,,,0.00,,2013-01-16 15:33:00,
2013-01-16 10:43:00,28.0,25.0,30.01,WSW,250,10.0,14.0,88,0.00,,,0.00,,2013-01-16 15:43:00,
2013-01-16 10:52:00,29.0,26.0,30.00,WSW,248,9.0,16.0,87,0.00,,,0.00,,2013-01-16 15:52:00,
2013-01-16 11:04:00,29.0,25.0,29.99,WSW,255,11.0,18.0,86,0.00,,,0.00,,2013-01-16 16:04:00,
2013-01-16 11:12:00,29.0,25.0,29.99,WSW,255,11.0,18.0,86,0.00,,,0.00,,2013-01-16 16:12:00,
2013-01-16 11:23:00,30.0,26.0,29.99,SW,232,10.0,15.0,86,0.00,,,0.00,,2013-01-16 16:23:00,
2013-01-16 11:33:00,30.0,26.0,29.99,West,269,10.0,18.0,85,0.00,,,0.00,,2013-01-16 16:33:00,
2013-01-16 11:43:00,30.0,26.0,29.99,West,269,10.0,18.0,85,0.00,,,0.00,,2013-01-16 16:43:00,
2013-01-16 11:52:00,31.0,27.0,29.99,West,271,7.0,17.0,86,0.00,,,0.00,,2013-01-16 16:52:00,
2013-01-16 12:03:00,31.0,26.0,29.98,West,260,10.0,18.0,82,0.00,,,0.00,,2013-01-16 17:03:00,
2013-01-16 12:12:00,31.0,26.0,29.98,West,260,10.0,18.0,82,0.00,,,0.00,,2013-01-16 17:12:00,
2013-01-16 12:23:00,31.0,26.0,29.97,West,270,10.0,17.0,82,0.00,,,0.00,,2013-01-16 17:23:00,
2013-01-16 12:33:00,31.0,25.0,29.96,WSW,253,14.0,19.0,79,0.00,,,0.00,,2013-01-16 17:33:00,
2013-01-16 12:44:00,31.0,25.0,29.96,WSW,253,14.0,19.0,79,0.00,,,0.00,,2013-01-16 17:44:00,
2013-01-16 12:53:00,32.0,26.0,29.95,WSW,253,8.0,14.0,79,0.00,,,0.00,,2013-01-16 17:53:00,
2013-01-16 13:03:00,32.0,25.0,29.95,West,278,10.0,17.0,76,0.00,,,0.00,,2013-01-16 18:03:00,
2013-01-16 13:13:00,32.0,25.0,29.95,West,278,10.0,17.0,76,0.00,,,0.00,,2013-01-16 18:13:00,
2013-01-16 13:23:00,33.0,26.0,29.93,West,267,9.0,15.0,75,0.00,,,0.00,,2013-01-16 18:23:00,
2013-01-16 13:33:00,33.0,26.0,29.93,West,267,9.0,15.0,75,0.00,,,0.00,,2013-01-16 18:33:00,
2013-01-16 13:43:00,33.0,26.0,29.93,West,267,9.0,15.0,75,0.00,,,0.00,,2013-01-16 18:43:00,
2013-01-16 13:53:00,33.0,26.0,29.92,SW,231,13.0,17.0,74,0.00,,,0.00,,2013-01-16 18:53:00,
2013-01-16 14:03:00,34.0,27.0,29.92,WSW,257,10.0,22.0,74,0.00,,,0.00,,2013-01-16 19:03:00,
2013-01-16 14:13:00,34.0,27.0,29.92,WSW,257,10.0,22.0,74,0.00,,,0.00,,2013-01-16 19:13:00,
2013-01-16 14:23:00,34.0,26.0,29.91,WSW,243,14.0,20.0,72,0.00,,,0.00,,2013-01-16 19:23:00,
2013-01-16 14:33:00,34.0,26.0,29.90,WSW,239,17.0,22.0,71,0.00,,,0.00,,2013-01-16 19:33:00,
2013-01-16 14:43:00,34.0,26.0,29.90,WSW,239,17.0,22.0,71,0.00,,,0.00,,2013-01-16 19:43:00,
2013-01-16 14:52:00,35.0,27.0,29.90,WSW,243,11.0,14.0,73,0.00,,,0.00,,2013-01-16 19:52:00,
2013-01-16 15:03:00,35.0,26.0,29.90,SW,228,17.0,23.0,69,0.00,,,0.00,,2013-01-16 20:03:00,
2013-01-16 15:12:00,35.0,26.0,29.90,SW,228,17.0,23.0,69,0.00,,,0.00,,2013-01-16 20:12:00,
2013-01-16 15:23:00,35.0,27.0,29.90,SW,232,11.0,19.0,72,0.00,,,0.00,,2013-01-16 20:23:00,
2013-01-16 15:33:00,35.0,26.0,29.90,WSW,239,16.0,22.0,68,0.00,,,0.00,,2013-01-16 20:33:00,
2013-01-16 15:43:00,35.0,26.0,29.90,WSW,239,16.0,22.0,68,0.00,,,0.00,,2013-01-16 20:43:00,
2013-01-16 15:53:00,35.0,26.0,29.91,WSW,240,16.0,21.0,68,0.00,,,0.00,,2013-01-16 20:53:00,
2013-01-16 16:03:00,35.0,26.0,29.91,WSW,250,11.0,19.0,70,0.00,,,0.00,,2013-01-16 21:03:00,
2013-01-16 16:12:00,35.0,26.0,29.91,WSW,250,11.0,19.0,70,0.00,,,0.00,,2013-01-16 21:12:00,
2013-01-16 16:23:00,35.0,26.0,29.91,WSW,256,14.0,19.0,68,0.00,,,0.00,,2013-01-16 21:23:00,
2013-01-16 16:33:00,35.0,26.0,29.91,SW,235,14.0,19.0,70,0.00,,,0.00,,2013-01-16 21:33:00,
2013-01-16 16:43:00,35.0,26.0,29.91,SW,235,14.0,19.0,70,0.00,,,0.00,,2013-01-16 21:43:00,
2013-01-16 16:52:00,35.0,26.0,29.91,SW,232,11.0,24.0,69,0.00,,,0.00,,2013-01-16 21:52:00,
2013-01-16 17:03:00,35.0,26.0,29.92,SW,232,12.0,18.0,70,0.00,,,0.00,,2013-01-16 22:03:00,
2013-01-16 17:12:00,35.0,26.0,29.92,SW,232,12.0,18.0,70,0.00,,,0.00,,2013-01-16 22:12:00,
2013-01-16 17:23:00,34.0,26.0,29.93,WSW,258,11.0,14.0,73,0.00,,,0.00,,2013-01-16 22:23:00,
2013-01-16 17:33:00,34.0,26.0,29.93,SW,229,13.0,19.0,73,0.00,,,0.00,,2013-01-16 22:33:00,
2013-01-16 17:43:00,34.0,26.0,29.93,SW,229,13.0,19.0,73,0.00,,,0.00,,2013-01-16 22:43:00,
2013-01-16 17:52:00,34.0,27.0,29.94,SW,225,13.0,19.0,74,0.00,,,0.00,,2013-01-16 22:52:00,
2013-01-16 18:03:00,33.0,26.0,29.94,West,260,13.0,20.0,74,0.00,,,0.00,,2013-01-16 23:03:00,
2013-01-16 18:12:00,33.0,26.0,29.94,West,260,13.0,20.0,74,0.00,,,0.00,,2013-01-16 23:12:00,
2013-01-16 18:23:00,33.0,26.0,29.95,West,262,13.0,17.0,74,0.00,,,0.00,,2013-01-16 23:23:00,
2013-01-16 18:33:00,33.0,26.0,29.96,SW,231,14.0,20.0,74,0.00,,,0.00,,2013-01-16 23:33:00,
2013-01-16 18:42:00,33.0,26.0,29.96,SW,231,14.0,20.0,74,0.00,,,0.00,,2013-01-16 23:42:00,
2013-01-16 18:52:00,33.0,26.0,29.95,WSW,239,13.0,19.0,75,0.00,,,0.00,,2013-01-16 23:52:00,
2013-01-16 19:02:00,33.0,26.0,29.95,SW,215,13.0,20.0,76,0.00,,,0.00,,2013-01-17 00:02:00,
2013-01-16 19:12:00,33.0,26.0,29.95,SW,215,13.0,20.0,76,0.00,,,0.00,,2013-01-17 00:12:00,
2013-01-16 19:22:00,33.0,26.0,29.96,WSW,243,13.0,19.0,76,0.00,,,0.00,,2013-01-17 00:22:00,
2013-01-16 19:32:00,33.0,26.0,29.95,WSW,240,13.0,20.0,75,0.00,,,0.00,,2013-01-17 00:32:00,
2013-01-16 19:42:00,33.0,26.0,29.95,WSW,240,13.0,20.0,75,0.00,,,0.00,,2013-01-17 00:42:00,
2013-01-16 19:52:00,33.0,26.0,29.95,WSW,243,15.0,21.0,75,0.00,,,0.00,,2013-01-17 00:52:00,
2013-01-16 20:02:00,33.0,26.0,29.96,SW,226,13.0,18.0,74,0.00,,,0.00,,2013-01-17 01:02:00,
2013-01-16 20:12:00,33.0,26.0,29.96,SW,226,13.0,18.0,74,0.00,,,0.00,,2013-01-17 01:12:00,
2013-01-16 20:22:00,33.0,26.0,29.96,SW,226,13.0,18.0,74,0.00,,,0.00,,2013-01-17 01:22:00,
2013-01-16 20:33:00,33.0,26.0,29.96,WSW,248,12.0,19.0,75,0.00,,,0.00,,2013-01-17 01:33:00,
2013-01-16 20:42:00,33.0,26.0,29.96,WSW,248,12.0,19.0,75,0.00,,,0.00,,2013-01-17 01:42:00,
2013-01-16 20:53:00,33.0,26.0,29.97,West,264,13.0,18.0,75,0.00,,,0.00,,2013-01-17 01:53:00,
2013-01-16 21:02:00,33.0,26.0,29.98,WSW,255,11.0,17.0,76,0.00,,,0.00,,2013-01-17 02:02:00,
2013-01-16 21:12:00,33.0,26.0,29.98,WSW,255,11.0,17.0,76,0.00,,,0.00,,2013-01-17 02:12:00,
2013-01-16 21:22:00,33.0,27.0,29.98,SW,236,11.0,20.0,77,0.00,,,0.00,,2013-01-17 02:22:00,
2013-01-16 21:32:00,33.0,27.0,29.98,WSW,250,11.0,18.0,77,0.00,,,0.00,,2013-01-17 02:32:00,
2013-01-16 21:42:00,33.0,27.0,29.98,WSW,250,11.0,18.0,77,0.00,,,0.00,,2013-01-17 02:42:00,
2013-01-16 21:52:00,33.0,27.0,29.98,WSW,250,11.0,18.0,77,0.00,,,0.00,,2013-01-17 02:52:00,
2013-01-16 22:03:00,33.0,27.0,29.99,West,262,9.0,16.0,77,0.00,,,0.00,,2013-01-17 03:03:00,
2013-01-16 22:12:00,33.0,27.0,29.99,West,262,9.0,16.0,77,0.00,,,0.00,,2013-01-17 03:12:00,
2013-01-16 22:22:00,33.0,27.0,29.99,West,275,10.0,18.0,78,0.00,,,0.00,,2013-01-17 03:22:00,
2013-01-16 22:33:00,33.0,27.0,30.00,West,276,9.0,14.0,79,0.00,,,0.00,,2013-01-17 03:33:00,
2013-01-16 22:43:00,33.0,27.0,30.00,West,276,9.0,14.0,79,0.00,,,0.00,,2013-01-17 03:43:00,
2013-01-16 22:52:00,33.0,27.0,30.00,West,269,9.0,15.0,79,0.00,,,0.00,,2013-01-17 03:52:00,
2013-01-16 23:02:00,33.0,28.0,30.00,WSW,257,9.0,15.0,80,0.00,,,0.00,,2013-01-17 04:02:00,
2013-01-16 23:12:00,34.0,28.0,30.00,West,269,8.0,15.0,80,0.00,,,0.00,,2013-01-17 04:12:00,
2013-01-16 23:22:00,34.0,28.0,30.00,West,269,8.0,15.0,80,0.00,,,0.00,,2013-01-17 04:22:00,
2013-01-16 23:33:00,34.0,28.0,30.00,WSW,253,9.0,16.0,79,0.00,,,0.00,,2013-01-17 04:33:00,
2013-01-16 23:42:00,34.0,28.0,30.00,WSW,253,9.0,16.0,79,0.00,,,0.00,,2013-01-17 04:42:00,
2013-01-16 23:52:00,34.0,29.0,30.01,West,267,10.0,14.0,81,0.00,,,0.00,,2013-01-17 04:52:00,